Wetterdaten: aktuell Dienstag, 24.11.2020 22:00
Datum Zeit Temperatur Bodentemp. Luftfeuchte Luftdruck Regen Wind Richtung Richtung Sonnenschein
24.11.2020 22:00 3,1 C -1,7 C 92 % 1020 hPa 0,0 l/m 17,3 km/h (3 Bft) SO 125 0 min
24.11.2020 21:54 3,1 C -1,6 C 92 % 1020 hPa 0,0 l/m 8,6 km/h (2 Bft) O-SO 115 0 min
24.11.2020 21:49 3,1 C -1,5 C 92 % 1020 hPa 0,0 l/m 12,3 km/h (2 Bft) SO22.5 130 0 min
24.11.2020 21:45 3,1 C -1,5 C 92 % 1020 hPa 0,0 l/m 13,3 km/h (3 Bft) O-SO22.5 115 0 min
24.11.2020 21:40 3,1 C -1,6 C 92 % 1020 hPa 0,0 l/m 13,3 km/h (3 Bft) O-SO22.5 115 0 min
24.11.2020 21:34 3,0 C -1,6 C 91 % 1020 hPa 0,0 l/m 14,1 km/h (3 Bft) O-SO22.5 120 0 min
24.11.2020 21:29 3,0 C -1,7 C 91 % 1021 hPa 0,0 l/m 9,4 km/h (2 Bft) O-SO22.5 105 0 min
24.11.2020 21:25 3,0 C -1,6 C 91 % 1021 hPa 0,0 l/m 13,8 km/h (3 Bft) O-SO 105 0 min
24.11.2020 21:19 3,0 C -1,7 C 91 % 1021 hPa 0,0 l/m 10,3 km/h (2 Bft) O-SO22.5 105 0 min
24.11.2020 21:14 3,1 C -1,6 C 91 % 1021 hPa 0,0 l/m 9,4 km/h (2 Bft) O 100 0 min
24.11.2020 21:10 3,1 C -1,6 C 91 % 1021 hPa 0,0 l/m 9,8 km/h (2 Bft) O-SO 105 0 min
24.11.2020 21:04 3,1 C -1,6 C 91 % 1021 hPa 0,0 l/m 11,0 km/h (2 Bft) O-SO 105 0 min
24.11.2020 20:59 3,2 C -1,5 C 91 % 1021 hPa 0,0 l/m 12,1 km/h (2 Bft) O-SO 105 0 min
24.11.2020 20:55 3,1 C -1,5 C 90 % 1021 hPa 0,0 l/m 9,3 km/h (2 Bft) O-SO 110 0 min
24.11.2020 20:50 3,1 C -1,5 C 90 % 1021 hPa 0,0 l/m 11,7 km/h (2 Bft) O-SO22.5 115 0 min
24.11.2020 20:44 3,2 C -1,5 C 90 % 1021 hPa 0,0 l/m 9,6 km/h (2 Bft) O 100 0 min
24.11.2020 20:39 3,2 C -1,5 C 90 % 1021 hPa 0,0 l/m 9,3 km/h (2 Bft) O 100 0 min
24.11.2020 20:35 3,2 C -1,4 C 90 % 1021 hPa 0,0 l/m 11,8 km/h (2 Bft) O-SO22.5 105 0 min
24.11.2020 20:29 3,2 C -1,5 C 89 % 1021 hPa 0,0 l/m 8,5 km/h (2 Bft) O-SO 105 0 min
24.11.2020 20:24 3,2 C -1,5 C 89 % 1021 hPa 0,0 l/m 8,1 km/h (2 Bft) O-SO 105 0 min
24.11.2020 20:20 3,2 C -1,5 C 88 % 1021 hPa 0,0 l/m 7,4 km/h (2 Bft) O-SO22.5 115 0 min
24.11.2020 20:15 3,3 C -1,5 C 88 % 1021 hPa 0,0 l/m 7,2 km/h (2 Bft) O 100 0 min
24.11.2020 20:09 3,5 C -1,4 C 88 % 1021 hPa 0,0 l/m 12,5 km/h (2 Bft) O-SO22.5 105 0 min
24.11.2020 20:04 3,5 C -1,3 C 87 % 1021 hPa 0,0 l/m 9,2 km/h (2 Bft) O-SO 105 0 min
24.11.2020 20:00 3,5 C -1,3 C 87 % 1021 hPa 0,0 l/m 11,1 km/h (2 Bft) O-SO22.5 110 0 min
24.11.2020 19:54 3,6 C -1,3 C 87 % 1021 hPa 0,0 l/m 15,6 km/h (3 Bft) O-SO22.5 120 0 min
24.11.2020 19:49 3,7 C -1,2 C 87 % 1021 hPa 0,0 l/m 13,3 km/h (3 Bft) O-SO22.5 120 0 min
24.11.2020 19:45 3,7 C -1,2 C 87 % 1021 hPa 0,0 l/m 17,1 km/h (3 Bft) SO22.5 130 0 min
24.11.2020 19:39 3,6 C -1,1 C 87 % 1021 hPa 0,0 l/m 15,5 km/h (3 Bft) SO22.5 125 0 min
24.11.2020 19:34 3,6 C -1,1 C 87 % 1021 hPa 0,0 l/m 18,3 km/h (3 Bft) SO22.5 125 0 min
24.11.2020 19:30 3,5 C -1,1 C 87 % 1021 hPa 0,0 l/m 11,6 km/h (2 Bft) O-SO22.5 115 0 min
24.11.2020 19:25 3,5 C -1,1 C 87 % 1021 hPa 0,0 l/m 12,7 km/h (3 Bft) SO22.5 130 0 min
24.11.2020 19:19 3,5 C -1,1 C 87 % 1021 hPa 0,0 l/m 13,0 km/h (3 Bft) O-SO22.5 115 0 min
24.11.2020 19:14 3,6 C -1,1 C 87 % 1021 hPa 0,0 l/m 14,5 km/h (3 Bft) O-SO22.5 120 0 min
24.11.2020 19:10 3,5 C -1,0 C 87 % 1021 hPa 0,0 l/m 11,1 km/h (2 Bft) O-SO22.5 110 0 min
24.11.2020 19:04 3,6 C -0,9 C 87 % 1021 hPa 0,0 l/m 13,9 km/h (3 Bft) O-SO22.5 120 0 min
24.11.2020 18:59 3,7 C -0,9 C 87 % 1021 hPa 0,0 l/m 11,6 km/h (2 Bft) O-SO22.5 115 0 min
24.11.2020 18:55 3,7 C -0,9 C 87 % 1021 hPa 0,0 l/m 16,3 km/h (3 Bft) SO45 125 0 min
24.11.2020 18:50 3,7 C -0,9 C 87 % 1021 hPa 0,0 l/m 13,7 km/h (3 Bft) O-SO22.5 115 0 min
24.11.2020 18:44 3,6 C -0,9 C 87 % 1021 hPa 0,0 l/m 13,5 km/h (3 Bft) SO22.5 125 0 min
24.11.2020 18:39 3,6 C -0,8 C 87 % 1021 hPa 0,0 l/m 13,0 km/h (3 Bft) SO22.5 125 0 min
24.11.2020 18:35 3,6 C -0,7 C 87 % 1022 hPa 0,0 l/m 15,5 km/h (3 Bft) O-SO22.5 120 0 min
24.11.2020 18:29 3,6 C -0,7 C 87 % 1022 hPa 0,0 l/m 11,0 km/h (2 Bft) O-SO22.5 120 0 min
24.11.2020 18:24 3,7 C -0,8 C 87 % 1021 hPa 0,0 l/m 16,4 km/h (3 Bft) O-SO22.5 120 0 min
24.11.2020 18:20 3,7 C -0,6 C 87 % 1021 hPa 0,0 l/m 11,0 km/h (2 Bft) O-SO22.5 120 0 min
24.11.2020 18:15 3,7 C -0,7 C 87 % 1021 hPa 0,0 l/m 11,0 km/h (2 Bft) O-SO22.5 115 0 min
24.11.2020 18:09 3,7 C -0,7 C 86 % 1022 hPa 0,0 l/m 11,9 km/h (2 Bft) SO22.5 125 0 min
24.11.2020 18:04 3,8 C -0,6 C 86 % 1022 hPa 0,0 l/m 8,3 km/h (2 Bft) O-SO22.5 120 0 min
24.11.2020 18:00 3,9 C -0,6 C 86 % 1022 hPa 0,0 l/m 10,1 km/h (2 Bft) O-SO 120 0 min
_ Min-Zeit 00:09 01:14 13:09 21:34 - 23:05 - - -
Minimum _ 0,3 C -3,4 C 64 % 1020 hPa - 0,0 km/h (0 Bft) - - -
_ Max-Zeit 12:50 14:54 02:15 23:05 23:05 19:34 - - 11:20
Maximum _ 10,5 C 0,4 C 100 % 1028 hPa 0,0 l/m 18,3 km/h
SO (3 Bft)
- - 6 min
Durchschnitt _ 4,4 C -1,4 C 90 % 1024 hPa #0,0 l/m 5,1 km/h (1 Bft) O-SO - #1:45 h